#timestamp,LO_Frequency,Hit,StdDev 
1689933615.3,286046996.6,Y
1689933635.2,286046998.3,P
1689933655.0,286046999.0,P
1689933655.9,286046999.0,P
1689933675.8,286046999.3,N
1689933695.6,286046998.7,Y
1689933715.4,286047000.9,P
1689933735.3,286047000.5,N
1689933755.1,286046998.1,N
1689933775.9,286046998.2,N
1689933795.7,286046998.1,N
1689933815.5,286047001.1,N
1689933835.4,286046998.4,N
1689933855.2,286046999.9,N
1689933875.0,286046998.2,N
1689933875.9,286046998.2,N
1689933895.8,286047000.3,N
1689933915.6,286047002.7,N
1689933935.5,286047000.0,N
1689933955.3,286047001.0,N
1689933975.1,286047001.1,N
1689933995.9,286047000.9,N
1689934015.7,286046998.4,N
1689934035.5,286046998.5,N
1689934055.4,286046998.5,N
1689934075.2,286046998.4,N
1689934095.1,286046998.7,N
1689934096.0,286046998.7,N
1689934115.8,286046998.6,N
1689934135.6,286046998.3,N
1689934155.5,286046998.7,N
1689934175.3,286047000.8,N
1689934195.1,286047000.7,N
1689934215.9,286046998.4,N
1689934235.7,286046998.8,N
1689934255.6,286046998.2,N
1689934275.4,286047001.1,N
1689934295.2,286047001.6,N
1689934315.1,286047004.3,Y
1689934316.0,286047004.3,P
1689934335.8,286047005.1,N
1689934355.6,286047004.7,N
1689934375.5,286047003.7,N
1689934395.3,286047004.2,N
1689934415.2,286047001.5,N
1689934435.9,286047003.8,N
1689934455.7,286047001.3,N
1689934475.6,286047002.2,N
1689934495.4,286047000.5,N
1689934515.2,286047000.8,N
1689934535.1,286047000.9,N
1689934566.0,286047001.0,E
1689934575.0,286047000.9,N
1689934575.9,286047000.9,P
1689934595.8,286046998.9,P
1689934615.6,286047001.0,N
1689934635.5,286047000.7,N
1689934655.3,286046999.1,N
1689934675.1,286046999.1,N
1689934695.9,286046999.6,N
1689934715.7,286046996.7,Y
1689934735.5,286046998.3,P
1689934755.4,286046999.2,N
1689934775.2,286046998.3,N
1689934795.1,286046998.2,N
1689934796.0,286046998.2,N
1689934815.8,286046999.8,N
1689934835.6,286047004.2,Y
1689934855.5,286047002.1,P
1689934875.3,286047002.7,N
1689934895.2,286047000.6,N
1689934915.9,286047000.9,N
1689934935.7,286047000.9,N
1689934955.6,286047001.0,N
1689934975.4,286047000.3,N
1689934995.2,286047000.9,N
1689935015.1,286046998.2,N
1689935016.0,286046998.2,N
1689935035.8,286046998.2,N
1689935055.7,286047001.2,N
1689935075.5,286046998.2,N
1689935095.3,286046998.5,N
1689935115.2,286046998.4,N
1689935135.0,286047000.6,N
1689935135.9,286047000.6,N
1689935155.7,286047000.6,N
1689935175.6,286046998.5,N
1689935195.4,286047000.9,N
1689935215.3,286047000.0,N
1689935235.1,286047000.8,N
1689935236.0,286047000.8,N
1689935255.8,286047000.4,N
1689935275.7,286047001.1,N
1689935295.5,286046999.9,N
1689935315.3,286047000.0,N
1689935335.2,286047002.0,N
1689935355.0,286047001.9,N
1689935355.9,286047001.9,N
1689935375.8,286047001.5,N
1689935395.6,286047002.8,N
1689935415.4,286047002.3,N
1689935435.3,286047001.7,N
1689935455.1,286047002.4,N
1689935475.8,286047002.1,N
1689935495.7,286047001.7,N
1689935515.5,286047004.0,N
1689935535.4,286047003.5,N
1689935555.2,286047005.6,Y
1689935575.0,286047004.2,P
1689935575.9,286047004.2,N
1689935595.8,286047001.7,N
1689935615.6,286047002.8,N
1689935635.5,286047002.8,N
1689935655.3,286047002.8,N
1689935675.1,286047000.2,N
1689935695.9,286046999.9,N
1689935715.7,286047000.4,N
1689935735.5,286047002.7,N
1689935755.4,286047000.1,N
1689935775.2,286047000.2,N
1689935795.0,286047001.6,N
1689935796.0,286047001.6,N
1689935815.8,286047002.5,N
1689935835.6,286047002.7,N
1689935855.5,286047000.1,N
1689935875.3,286047000.2,N
1689935895.1,286047002.0,N
1689935915.9,286047002.5,N
1689935935.7,286047002.0,N
1689935955.6,286047002.7,N
1689935975.4,286047000.3,N
1689935995.2,286047001.2,N
1689936015.1,286046998.5,N
1689936016.0,286046998.5,N
1689936035.8,286046998.9,N
1689936055.6,286047000.8,N
1689936075.5,286047001.0,N
1689936095.3,286047001.0,N
1689936115.2,286047000.4,N
1689936135.9,286047000.0,N
1689936155.7,286047000.6,N
1689936175.6,286047000.7,N
1689936195.4,286046998.7,N
1689936215.2,286046999.4,N
1689936235.1,286046999.1,N
1689936236.0,286046999.1,N
1689936255.8,286046999.0,N
1689936275.7,286046999.4,N
1689936295.5,286046999.0,N
1689936315.3,286046998.6,N
1689936335.2,286047001.2,N
1689936355.9,286046999.2,N
1689936375.7,286046998.9,N
1689936395.6,286046999.4,N
1689936415.4,286046999.0,N
1689936435.3,286046999.1,N
1689936455.1,286046998.7,N
1689936456.0,286046998.7,N
1689936475.8,286046999.5,N
1689936495.7,286046998.9,N
1689936515.5,286046999.5,N
1689936535.3,286046998.8,N
1689936555.2,286046998.8,N
1689936575.0,286046999.3,N
1689936575.9,286046999.3,N
1689936595.8,286046996.6,Y
1689936615.6,286046998.3,P
1689936635.4,286047001.2,N
1689936655.3,286047000.5,N
1689936675.1,286046998.6,N
1689936695.8,286046996.5,Y
1689936715.7,286046999.0,P
1689936735.5,286046998.9,P
1689936755.4,286046999.6,N
1689936775.2,286046996.9,Y
1689936795.0,286046999.6,P
1689936795.9,286046999.6,N
1689936815.8,286046999.3,P
1689936835.6,286046998.9,Y
1689936855.5,286046998.5,P
1689936875.3,286047000.9,N
1689936895.1,286046998.5,N
1689936915.9,286047000.2,N
1689936935.7,286047001.1,N
1689936955.5,286046998.1,N
1689936975.4,286047001.1,N
1689936995.2,286047001.1,N
1689937015.1,286047000.5,N
1689937016.0,286047000.5,N
1689937035.8,286047001.2,N
1689937055.6,286047001.2,N
1689937075.5,286046998.6,N
1689937095.3,286046999.4,N
1689937115.1,286046999.4,N
1689937135.9,286046999.6,N
1689937155.7,286046999.6,N
1689937175.6,286046999.5,N
1689937195.4,286046999.0,N
